Weather History for Dickinson, ND

Change the Weather History Date:

Friday, October 21, 2011

  Actual Average Record
Temperature  
Mean Temperature 49 °F 42 °F  
Max Temperature 62 °F 54 °F 82 °F (1927)
Min Temperature 35 °F 30 °F 11 °F (1906)
Degree Days  
Heating Degree Days 16 23  
Month to date heating degree days 293 399  
Since 1 July heating degree days 529 753  
Cooling Degree Days 0 0  
Month to date cooling degree days 16 0  
Year to date cooling degree days 358 418  
Moisture  
Dew Point 35 °F    
Average Humidity 62    
Maximum Humidity 85    
Minimum Humidity 39    
Precipitation  
Precipitation 0.00 in 0.03 in 1.09 in (1953)
Month to date precipitation 0.29 0.91  
Year to date precipitation 17.28 14.67  
Sea Level Pressure  
Sea Level Pressure 30.05 in    
Wind  
Wind Speed 8 mph (WNW)    
Max Wind Speed 15 mph    
Max Gust Speed 20 mph    
Visibility 10 miles    
Events      
T = Trace of Precipitation, MM = Missing Value Source: NWS Daily Summary

Daily Weather History Graph

Daily Weather History Graph

Search for Another Location

Airport:

Trip Planner

Search our weather history database for the weather conditions in past years. The results will help you decide how hot, cold, wet, or windy it might be!

Date:

Astronomy

Oct. 21, 2011 Rise Set
Actual Time 7:17 AM MDT 5:53 PM MDT
Civil Twilight 6:46 AM MDT 6:24 PM MDT
Nautical Twilight 6:10 AM MDT 6:59 PM MDT
Astronomical Twilight 5:35 AM MDT 7:34 PM MDT
Moon 12:47 AM MDT (10/21) 2:58 PM MDT (10/21)
Length of Visible Light 11h 38m
Length of Day
10h 36m
Waning Crescent, 33% of the Moon is Illuminated
Oct 21
Waning Crescent
Oct 26
New
Nov 2
First Quarter
Nov 10
Full
Nov 18
Last Quarter

Hourly Weather History & Observations

Time (MDT) Temp. Windchill Dew Point Humidity Pressure Visibility Wind Dir Wind Speed Gust Speed Precip Events Conditions
12:56 AM 39.9 °F 33.9 °F 34.0 °F 79% 29.95 in 10.0 mi West 9.2 mph - N/A   Clear
1:56 AM 37.9 °F 32.1 °F 33.1 °F 83% 29.95 in 10.0 mi West 8.1 mph - N/A   Clear
2:56 AM 39.0 °F 32.8 °F 34.0 °F 82% 29.95 in 10.0 mi West 9.2 mph - N/A   Clear
3:56 AM 39.0 °F 32.3 °F 34.0 °F 82% 29.96 in 10.0 mi West 10.4 mph - N/A   Clear
4:56 AM 39.9 °F 33.4 °F 34.0 °F 79% 29.98 in 10.0 mi West 10.4 mph - N/A   Clear
5:56 AM 39.0 °F 32.3 °F 34.0 °F 82% 30.02 in 10.0 mi West 10.4 mph - N/A   Clear
6:56 AM 39.0 °F 34.0 °F 34.0 °F 82% 30.04 in 10.0 mi WNW 6.9 mph - N/A   Clear
7:56 AM 37.9 °F 31.5 °F 34.0 °F 86% 30.06 in 10.0 mi WNW 9.2 mph - N/A   Clear
8:56 AM 45.0 °F 39.7 °F 37.0 °F 74% 30.07 in 10.0 mi WNW 10.4 mph - N/A   Clear
9:56 AM 48.9 °F - 37.0 °F 64% 30.08 in 10.0 mi WNW 11.5 mph - N/A   Clear
10:56 AM 54.0 °F - 37.0 °F 53% 30.08 in 10.0 mi WNW 12.7 mph - N/A   Clear
11:56 AM 59.0 °F - 37.0 °F 44% 30.07 in 10.0 mi NNW 12.7 mph - N/A   Clear
12:56 PM 60.1 °F - 37.0 °F 42% 30.08 in 10.0 mi NW 9.2 mph - N/A   Clear
1:56 PM 59.0 °F - 36.0 °F 42% 30.08 in 10.0 mi NW 10.4 mph - N/A   Clear
2:56 PM 62.1 °F - 37.0 °F 39% 30.07 in 10.0 mi NNW 12.7 mph - N/A   Clear
3:56 PM 60.1 °F - 37.0 °F 42% 30.08 in 10.0 mi NW 6.9 mph - N/A   Clear
4:56 PM 59.0 °F - 37.0 °F 44% 30.08 in 10.0 mi NNW 3.5 mph - N/A   Clear
5:56 PM 55.0 °F - 36.0 °F 49% 30.10 in 10.0 mi NNW 3.5 mph - N/A   Clear
7:56 PM 46.9 °F - 36.0 °F 66% 30.12 in 10.0 mi NE 4.6 mph - N/A   Clear
8:56 PM 39.0 °F 36.8 °F 33.1 °F 79% 30.13 in 10.0 mi South 3.5 mph - N/A   Clear
9:56 PM 37.0 °F 32.4 °F 32.0 °F 82% 30.12 in 10.0 mi SSE 5.8 mph - N/A   Clear
10:56 PM 37.0 °F 31.6 °F 32.0 °F 82% 30.10 in 10.0 mi South 6.9 mph - N/A   Clear
11:56 PM 37.0 °F 32.4 °F 32.0 °F 82% 30.09 in 10.0 mi South 5.8 mph - N/A   Clear